N0ZJT Weather Reports


time (UTC)temp
C
wind
direction
speed
KPH
gust
KPH
rain 1hr
cm
rain 24hr
cm
rain mn
cm
humidity
%
barometer
mb
20260510130222 8 91 0.0 4.8 0.00 0.00 0.00 50 981.2
20260510124622 8 83 3.2 6.4 0.00 0.00 0.00 49 981.1
20260510123222 8 82 3.2 4.8 0.00 0.00 0.00 49 981.0
20260510121622 7 0 0.0 0.0 0.00 0.00 0.00 52 980.7
20260510120222 6 0 0.0 0.0 0.00 0.00 0.00 53 980.5
20260510114622 6 0 0.0 0.0 0.00 0.00 0.00 53 980.4
20260510113222 5 0 0.0 0.0 0.00 0.00 0.00 53 980.1
20260510111622 5 0 0.0 0.0 0.00 0.00 0.00 52 979.8
20260510110222 5 187 1.6 3.2 0.00 0.00 0.00 52 980.0
20260510104622 6 0 0.0 0.0 0.00 0.00 0.00 50 979.8
20260510103222 6 212 0.0 1.6 0.00 0.00 0.00 49 979.8
20260510101622 6 0 0.0 1.6 0.00 0.00 0.00 49 979.8
20260510100222 6 234 0.0 1.6 0.00 0.00 0.00 49 979.9
20260510094622 6 0 0.0 0.0 0.00 0.00 0.00 48 979.7
20260510093222 7 0 0.0 0.0 0.00 0.00 0.00 47 979.4
20260510091622 7 0 0.0 0.0 0.00 0.00 0.00 46 979.3
20260510090222 7 197 0.0 1.6 0.00 0.00 0.00 46 979.0
20260510084622 7 195 1.6 1.6 0.00 0.00 0.00 46 978.9
20260510083222 7 0 0.0 0.0 0.00 0.00 0.00 47 978.8
20260510081622 7 0 0.0 0.0 0.00 0.00 0.00 47 978.3
20260510080222 7 0 0.0 0.0 0.00 0.00 0.00 45 977.9
20260510074622 8 0 0.0 0.0 0.00 0.00 0.00 44 977.8
20260510073222 8 0 0.0 0.0 0.00 0.00 0.00 44 977.9
20260510071622 8 0 0.0 0.0 0.00 0.00 0.00 43 977.5
20260510070222 8 0 0.0 0.0 0.00 0.00 0.00 42 977.7
20260510064622 9 242 0.0 1.6 0.00 0.00 0.00 41 977.5
20260510063222 9 0 0.0 0.0 0.00 0.00 0.00 41 977.4
20260510061622 10 0 0.0 0.0 0.00 0.00 0.00 40 977.2
20260510060222 10 0 0.0 0.0 0.00 0.00 0.00 38 977.2
20260510054622 10 0 0.0 3.2 0.00 0.00 0.00 37 976.7
20260510053222 10 143 0.0 3.2 0.00 0.00 0.00 37 976.8
20260510051622 10 0 0.0 3.2 0.00 0.00 0.00 36 976.6
20260510050222 11 135 0.0 1.6 0.00 0.00 0.00 35 976.5
20260510044622 11 152 1.6 3.2 0.00 0.00 0.00 34 976.2
20260510043222 11 143 1.6 3.2 0.00 0.00 0.00 34 976.2
20260510041622 11 155 1.6 1.6 0.00 0.00 0.00 33 975.9
20260510040222 12 197 1.6 3.2 0.00 0.00 0.00 33 975.6
20260510034622 12 128 1.6 4.8 0.00 0.00 0.00 33 975.6
20260510033222 12 192 3.2 4.8 0.00 0.00 0.00 32 975.2
20260510031622 12 164 3.2 4.8 0.00 0.00 0.00 32 975.2
20260510030222 13 162 0.0 4.8 0.00 0.00 0.00 31 975.0
20260510024622 13 128 1.6 3.2 0.00 0.00 0.00 31 974.9
20260510023222 13 149 3.2 4.8 0.00 0.00 0.00 30 974.6
20260510021622 14 162 4.8 6.4 0.00 0.00 0.00 29 974.1
20260510020222 15 161 3.2 4.8 0.00 0.00 0.00 29 973.9
20260510014622 15 148 1.6 3.2 0.00 0.00 0.00 28 973.5
20260510013222 15 128 3.2 6.4 0.00 0.00 0.00 27 973.0
20260510011622 16 189 4.8 6.4 0.00 0.00 0.00 26 972.7
20260510010222 16 181 6.4 9.7 0.00 0.00 0.00 26 972.3
20260510004622 17 170 4.8 8.0 0.00 0.00 0.00 25 972.1
20260510003222 17 186 4.8 8.0 0.00 0.00 0.00 26 971.8
20260510001622 18 73 6.4 17.7 0.00 0.00 0.00 25 971.8
20260510000222 18 174 8.0 16.1 0.00 0.00 0.00 25 971.6
20260509234622 18 197 4.8 16.1 0.00 0.00 0.00 25 971.1
20260509233222 19 101 6.4 14.5 0.00 0.00 0.00 24 971.0
20260509231622 19 180 4.8 8.0 0.00 0.00 0.00 25 970.9
20260509230222 20 138 3.2 6.4 0.00 0.00 0.00 25 970.7
20260509224622 20 208 8.0 17.7 0.00 0.00 0.00 25 970.5
20260509223222 20 100 6.4 22.5 0.00 0.00 0.00 25 970.4
20260509221622 20 164 9.7 12.9 0.00 0.00 0.00 26 970.2
20260509220222 20 161 4.8 14.5 0.00 0.00 0.00 26 970.0
20260509214622 21 183 6.4 9.7 0.00 0.00 0.00 26 969.8
20260509213222 21 181 16.1 20.9 0.00 0.00 0.00 27 969.8
20260509211622 21 220 6.4 17.7 0.00 0.00 0.00 30 969.8
20260509210222 21 167 14.5 24.1 0.00 0.00 0.00 28 969.8
20260509204622 21 72 6.4 12.9 0.00 0.00 0.00 29 969.4
20260509203222 21 98 4.8 12.9 0.00 0.00 0.00 29 969.5
20260509201622 21 169 9.7 20.9 0.00 0.00 0.00 30 969.3
20260509200222 22 76 6.4 17.7 0.00 0.00 0.00 29 969.0
20260509194622 22 225 9.7 24.1 0.00 0.00 0.00 30 969.0
20260509193222 22 204 14.5 29.0 0.00 0.00 0.00 29 968.8
20260509191622 22 61 8.0 20.9 0.00 0.00 0.00 31 968.7
20260509190222 22 149 12.9 20.9 0.00 0.00 0.00 32 968.6
20260509184622 21 119 11.3 32.2 0.00 0.00 0.00 33 968.3
20260509183222 21 179 14.5 19.3 0.00 0.00 0.00 34 968.3
20260509181622 21 128 9.7 14.5 0.00 0.00 0.00 36 968.3
20260509180222 21 91 16.1 24.1 0.00 0.00 0.00 38 968.3
20260509174622 20 108 9.7 14.5 0.00 0.00 0.00 39 968.3
20260509173222 20 42 17.7 30.6 0.00 0.00 0.00 43 968.1
20260509171622 20 84 16.1 27.4 0.00 0.00 0.00 44 968.1
20260509170222 19 133 14.5 30.6 0.00 0.00 0.00 43 968.1
20260509164622 18 97 12.9 16.1 0.00 0.00 0.00 47 968.2
20260509163222 17 99 16.1 22.5 0.00 0.00 0.00 46 968.3
20260509161622 17 134 6.4 19.3 0.00 0.00 0.00 44 968.2
20260509160222 16 86 6.4 20.9 0.00 0.00 0.00 46 968.1
20260509154622 15 196 3.2 9.7 0.00 0.00 0.00 46 968.2
20260509153222 15 110 6.4 16.1 0.00 0.00 0.00 44 968.0
20260509151622 15 97 6.4 9.7 0.00 0.00 0.00 43 968.0
20260509150222 15 112 6.4 8.0 0.00 0.00 0.00 42 967.7
20260509144622 15 97 6.4 9.7 0.00 0.00 0.00 43 967.7
20260509143222 14 86 4.8 9.7 0.00 0.00 0.00 43 967.7
20260509141622 14 104 12.9 27.4 0.00 0.00 0.00 41 967.7
20260509140222 14 182 3.2 12.9 0.00 0.00 0.00 43 967.8
20260509134622 14 72 3.2 9.7 0.00 0.00 0.00 44 967.7
20260509133222 14 172 6.4 12.9 0.00 0.00 0.00 44 967.7
20260509131622 13 73 8.0 12.9 0.00 0.00 0.00 47 967.2